GPS BIIF-4

Last updated on Sat Jun 27 2026 00:02:55 GMT+0000 (Coordinated Universal Time)

1 39166U 13023A 26176.65900812 -.00000046 00000+0 00000+0 0 9996 2 39166 54.4973 268.6283 0141475 51.0602 310.2306 2.00563550 96051
UTC large
Height (km)
Speed (km/s)
/
Latitude / Longitude
Inclination (degrees)
Orbital Period (minutes)
Azimuth
Elevation
Range (km)
Doppler Factor

Next 0 passes for location: London (51.5072 / 0.1276)

No passes found over London.
GPS BIIF-4